Regional Weather Roundup
Issued by NWS

Home | Current Version | Previous Version | Graphics & Text | Print | Product List | Glossary On
Versions: 1 2 3 4 5 6 7 8 9 10 11 12 13 14 15 16 17 18 19 20 21 22 23 24 25 26 27 28 29 30 31 32 33 34 35 36 37 38 39 40 41 42 43 44 45 46 47 48 49 50
000
ASUS43 KMPX 211201
RWRMN
WEATHER ROUNDUP FOR MINNESOTA
NATIONAL WEATHER SERVICE TWIN CITIES/CHANHASSEN MN
700 AM CDT THU AUG 21 2014


NOTE: "FAIR" INDICATES FEW OR NO CLOUDS BELOW 12,000 FEET WITH NO
SIGNIFICANT WEATHER AND/OR OBSTRUCTIONS TO VISIBILITY. N/A MEANS
CURRENT SKY AND/OR WEATHER CONDITIONS ARE NOT AVAILABLE.

MNZ060>063-068>070-211300-
   Twin Cities Metro

CITY           SKY/WX    TMP DP  RH WIND       PRES   REMARKS
TWIN CITIES    LGT RAIN  70  69  97 N8        29.86R
6HR MIN TEMP:  70; 6HR MAX TEMP:  72; 6HR PCP:  0.03;

ST PAUL        TSTM      69  67  93 N6        29.87R
CRYSTAL        LGT RAIN  70  67  90 CALM      29.86R
BLAINE         HVY RAIN  70  70 100 SE5       29.87R
LAKEVILLE      CLOUDY    68  66  94 S10G22    29.81F
EDEN PRAIRIE   LGT RAIN  71  69  93 N7        29.85R
6HR MIN TEMP:  71; 6HR MAX TEMP:  73; 6HR PCP:  0.11;

SOUTH ST PAUL  LGT RAIN  70  68  93 CALM      29.86R
LAKE ELMO      TSTM      68  66  94 NE5       29.87R
$$
MNZ001>005-007-008-013>017-022>024-027-028-211300-
   Northwest Minnesota

CITY           SKY/WX    TMP DP  RH WIND       PRES   REMARKS
BEMIDJI        CLOUDY    64  61  91 E7        29.82R
HALLOCK        CLOUDY    66  64  94 E5        29.79R
ROSEAU         CLOUDY    64  59  82 E7        29.83F
WARROAD        CLOUDY    63  57  82 E8        29.85F
THIEF RVR FALL CLOUDY    64  63  94 E9        29.79S
CROOKSTON      DRIZZLE   66  64  94 SE7       29.77S
FOSSTON        CLOUDY    63  59  88 E6        29.79F
DETROIT LAKES  CLOUDY    68  64  88 SE8       29.77R
MOORHEAD       MOCLDY    68  68 100 CALM      29.76R
PARK RAPIDS    CLOUDY    65  64  97 SE7       29.78F
MAHNOMEN       CLOUDY    66  64  94 E8        29.76F
$$
MNZ006-009>011-018-025>026-211300-
   North Central Minnesota

CITY           SKY/WX    TMP DP  RH WIND       PRES   REMARKS
BAUDETTE       CLOUDY    60  58  92 SE8       29.88R
FLAG ISLAND    CLOUDY    66  61  82 SE12      29.86S
INTL FALLS     CLOUDY    59  58  96 E9        29.91S
6HR MIN TEMP:  55; 6HR MAX TEMP:  59;

WASKISH        CLOUDY    59  57  94 E9        29.85F
BIG FORK       CLOUDY    63  59  88 SE7       29.90S
LONGVILLE      LGT RAIN  61  61 100 E7        29.81F
GRAND RAPIDS   CLOUDY    61  57  88 SE8       29.88F
CRANE LAKE     CLOUDY    57  57 100 CALM      29.95F
ORR            CLOUDY    59  55  88 SE5       29.90S
COOK           CLOUDY    61  57  88 CALM      29.93S
WALKER         CLOUDY    63  61  95 E7G16     29.78F
$$
MNZ012-019>021-037-211300-
   Northeast Minnesota

CITY           SKY/WX    TMP DP  RH WIND       PRES   REMARKS
DULUTH         CLOUDY    60  58  92 E12       29.91S FOG
6HR MIN TEMP:  60; 6HR MAX TEMP:  62;

ELY            CLOUDY    61  57  88 E3        29.94F
HIBBING        CLOUDY    61  58  90 E7        29.92S
EVELETH        CLOUDY    59  59 100 CALM      29.95R
DULUTH HARBOR  CLOUDY    61  59  94 NE16      29.91F
TWO HARBORS    CLOUDY    59  55  88 E6        29.93R
SILVER BAY     CLOUDY    59  59 100 NE6       29.94R FOG
GRAND MARAIS     N/A     59  59 100 NE8       29.97S
G MARAIS ARPRT FOG       57  54  88 E3        30.00S VSB 1/2
$$
MNZ029>031-032-039>041-046>048-054>057-064-211300-
   West Central Minnesota

CITY           SKY/WX    TMP DP  RH WIND       PRES   REMARKS
FERGUS FALLS   MOCLDY    70  66  88 SE10      29.73R
WHEATON        CLEAR     64  63  94 S7        29.75R
MORRIS         PTCLDY    70  68  94 SE13      29.72S
ALEXANDRIA     CLOUDY    67  65  93 SE16      29.76F
ELBOW LAKE     FAIR      67  66  96 SE9       29.72S
WADENA         LGT RAIN  64  63  94 NE7G23    29.74R
APPLETON       CLEAR     70  66  88 E9        29.72S
BENSON         PTCLDY    70  66  88 SE10      29.73S
ORTONVILLE     PTCLDY    68  64  88 SE3       29.73R
MADISON        CLEAR     72  70  94 SE6       29.72S
WILLMAR        FAIR      70  66  88 E13       29.76F
$$
MNZ033>034-036-042>043-049>051-058-059-211300-
   Central Minnesota

CITY           SKY/WX    TMP DP  RH WIND       PRES   REMARKS
ST CLOUD       LGT RAIN  68  65  90 E10       29.80F
6HR MIN TEMP:  67; 6HR MAX TEMP:  70; 6HR PCP:  1.47;

SAUK CENTRE    FAIR      66  64  91 E13       29.79S
PAYNESVILLE    HVY RAIN  65  64  97 NE13      29.77F
AITKIN         MIX PCPN  64  59  82 CALM      29.88R
PINE RIVER     HVY RAIN  63  63 100 SE23G31   29.78F
BRAINERD       RAIN      63  63 100 E8        29.85F FOG
STAPLES        LGT RAIN  63  63 100 SE12      29.76F
LONG PRAIRIE   FAIR      64  64 100 E10       29.77F
LITTLE FALLS   RAIN      63  63 100 E8        29.81F
LITCHFIELD     CLOUDY    70  70 100 E9        29.79F
BUFFALO        RAIN      67  65  91 E15       29.81F
MAPLE LAKE     RAIN      68  67  96 E14       29.81F
$$
MNZ037-044-045-052-053-211300-
   East Central Minnesota

CITY           SKY/WX    TMP DP  RH WIND       PRES   REMARKS
PRINCETON      CLOUDY    66  64  94 NE3       29.86S
MORA           CLOUDY    61  59  94 CALM      29.90R
CAMBRIDGE      RAIN      68  61  77 SW5       29.88R
RUSH CITY      CLOUDY    65  63  93 CALM      29.89R
MOOSE LAKE     LGT RAIN  61  59  94 N5        29.89R
HINCKLEY       RAIN      63  63 100 CALM      29.89R
CLOQUET        CLOUDY    61  59  94 E6        29.91S
MCGREGOR       CLOUDY    61  61 100 E5        29.88F
$$
MNZ071>073-080-081-089-090-097-098-211300-
   Southwest Minnesota

CITY           SKY/WX    TMP DP  RH WIND       PRES   REMARKS
MONTEVIDEO     CLEAR     68  68 100 SE9       29.74R
GRANITE FALLS  CLEAR    N/A N/A N/A E9        29.74S
CANBY          CLEAR     67  66  95 CALM      29.75R
MARSHALL       CLEAR     70  66  88 SE8       29.72S
REDWOOD FALLS  PTCLDY    71  69  93 E8        29.74F
OLIVIA         PTCLDY    70  68  94 E9G16     29.74F
PIPESTONE      CLOUDY    72  70  94 SE5       29.75S
WINDOM         RAIN      72  70  94 SE8       29.77R
WORTHINGTON    PTCLDY    72  12  10 S7        29.78R
JACKSON        MOCLDY    70  66  88 SE6       29.79R
TRACY          MOCLDY    70  69  95 SE8       29.75F
SLAYTON        CLOUDY    71  71  98 CALM      29.78R
$$
MNZ065>067-074>077-082>085-091>093-211300-
   South Central Minnesota

CITY           SKY/WX    TMP DP  RH WIND       PRES   REMARKS
MANKATO        CLOUDY    70  64  83 SE10      29.80F
NEW ULM        CLOUDY    70  70 100 E8        29.78R
ST JAMES         N/A     72  70  94 S8        29.78R
FAIRMONT       CLOUDY    70  64  83 MISG      29.79F
GLENCOE        TSTM      71  67  88 E8        29.80S
FARIBAULT      CLOUDY    72  66  83 E5        29.83F
OWATONNA       TSTM      72  68  88 CALM      29.84F
WASECA         CLOUDY    72  66  83 S7        29.84F
ALBERT LEA     TSTM      70  70 100 CALM      29.86R
$$
MNZ078>079-086>088-094>096-211300-
   Southeast Minnesota

CITY           SKY/WX    TMP DP  RH WIND       PRES   REMARKS
ROCHESTER      TSTM      70  68  93 VRB3      29.90R FOG
6HR MIN TEMP:  69; 6HR MAX TEMP:  70; 6HR PCP:  0.10;

RED WING       TSTM      72  68  88 SW7       29.86R
STANTON        CLOUDY    71  68  90 S12       29.82S
DODGE CENTER   TSTM      66  64  94 S6        29.91R
WINONA         CLOUDY    70  68  94 CALM      29.88R
AUSTIN         TSTM      72  70  94 N12       29.86R
PRESTON          N/A     69  68  98 SE10      29.86F THUNDER
$$
ABBREVIATIONS USED IN REMARKS
   TC - TEMPERATURES IN CELSIUS
  WCI - WIND CHILL INDEX
   HX - HEAT INDEX
  VSB - VISIBILITY
$$


USA.gov is the U.S. government's official web portal to all federal, state and local government web resources and services.